Buckhannon, WV

2:29 AM EDT on May 27, 2018 (GMT -0400)
Buckhannon

Weather History for KW22 - December, 2012

Change the Weather History Date:

Sunday, December 16, 2012

  Actual Average (WUND) Record (WUND)
Temperature  
Mean Temperature 52 °F -  
Max Temperature 57 °F - - (-1)
Min Temperature 46 °F - - (-1)
Degree Days  
Heating Degree Days 14    
Growing Degree Days 2 (Base 50)    
Moisture  
Dew Point 46 °F    
Average Humidity 75    
Maximum Humidity 87    
Minimum Humidity 51    
Precipitation  
Precipitation 0.00 in - - ()
Sea Level Pressure  
Sea Level Pressure 29.84 in    
Wind  
Wind Speed 6 mph (SSW)    
Max Wind Speed 14 mph    
Max Gust Speed 20 mph    
Visibility 10 miles    
Events      
Averages and records for this station are not official NWS values.
T = Trace of Precipitation, MM = Missing Value Source: NWS Daily Summary

Daily Weather History Graph

Daily Weather History Graph

Search for Another Location

Airport or City:

Astronomy

Dec. 16, 2012 Rise Set
Actual Time 7:33 AM EST 5:00 PM EST
Civil Twilight 7:03 AM EST 5:30 PM EST
Nautical Twilight 6:30 AM EST 6:03 PM EST
Astronomical Twilight 5:57 AM EST 6:36 PM EST
Moon 10:07 AM EST (12/16) 9:10 PM EST (12/16)
Length of Visible Light 10h 26m
Length of Day
9h 26m
Waxing Crescent, 16% of the Moon is Illuminated
Dec 16
Waxing Crescent
Dec 20
First Quarter
Dec 28
Full
Jan 4
Last Quarter
Jan 11
New

Hourly Weather History & Observations

Time (EST) Temp. Windchill Dew Point Humidity Pressure Visibility Wind Dir Wind Speed Gust Speed Precip Events Conditions
12:15 AM 48.2 °F - 37.4 °F 66% 29.93 in 10.0 mi ESE 3.5 mph - N/A   Overcast
12:35 AM 46.4 °F 45.2 °F 37.4 °F 71% 29.92 in 10.0 mi SE 3.5 mph - N/A   Overcast
12:55 AM 48.2 °F - 37.4 °F 66% 29.91 in 10.0 mi SSE 3.5 mph - N/A   Mostly Cloudy
1:15 AM 48.2 °F - 37.4 °F 66% 29.91 in 10.0 mi South 4.6 mph - N/A   Mostly Cloudy
1:35 AM 48.2 °F - 37.4 °F 66% 29.91 in 10.0 mi Calm Calm - N/A   Mostly Cloudy
1:55 AM 48.2 °F - 37.4 °F 66% 29.91 in 10.0 mi South 4.6 mph - N/A   Scattered Clouds
2:15 AM 50.0 °F - 35.6 °F 58% 29.91 in 10.0 mi South 8.1 mph - N/A   Scattered Clouds
2:35 AM 51.8 °F - 35.6 °F 54% 29.91 in 10.0 mi SSW 5.8 mph - N/A   Mostly Cloudy
3:15 AM 53.6 °F - 35.6 °F 51% 29.91 in 10.0 mi SSW 8.1 mph - N/A   Mostly Cloudy
3:35 AM 53.6 °F - 35.6 °F 51% 29.91 in 10.0 mi SSW 12.7 mph 16.1 mph N/A   Mostly Cloudy
3:55 AM 53.6 °F - 35.6 °F 51% 29.91 in 10.0 mi SSW 11.5 mph - N/A   Mostly Cloudy
4:15 AM 53.6 °F - 37.4 °F 54% 29.90 in 10.0 mi South 9.2 mph - N/A   Mostly Cloudy
4:35 AM 51.8 °F - 39.2 °F 62% 29.91 in 10.0 mi South 11.5 mph - N/A   Mostly Cloudy
4:55 AM 51.8 °F - 39.2 °F 62% 29.90 in 10.0 mi South 10.4 mph - N/A   Partly Cloudy
5:15 AM 51.8 °F - 41.0 °F 67% 29.90 in 10.0 mi South 10.4 mph 16.1 mph N/A   Scattered Clouds
5:35 AM 50.0 °F - 42.8 °F 76% 29.90 in 10.0 mi South 9.2 mph - N/A   Scattered Clouds
5:55 AM 50.0 °F - 42.8 °F 76% 29.89 in 10.0 mi South 10.4 mph - N/A   Partly Cloudy
6:15 AM 50.0 °F - 42.8 °F 76% 29.89 in 10.0 mi SSW 6.9 mph - N/A   Clear
6:35 AM 48.2 °F - 42.8 °F 82% 29.89 in 10.0 mi South 5.8 mph - N/A   Partly Cloudy
6:55 AM 50.0 °F - 42.8 °F 76% 29.90 in 10.0 mi South 5.8 mph - N/A   Scattered Clouds
7:15 AM 48.2 °F - 42.8 °F 82% 29.90 in 10.0 mi South 5.8 mph - N/A   Scattered Clouds
7:35 AM 48.2 °F - 44.6 °F 87% 29.90 in 10.0 mi South 4.6 mph - N/A   Partly Cloudy
7:55 AM 50.0 °F - 44.6 °F 82% 29.90 in 10.0 mi South 5.8 mph - N/A   Scattered Clouds
8:15 AM 50.0 °F - 44.6 °F 82% 29.89 in 10.0 mi South 4.6 mph - N/A   Partly Cloudy
8:35 AM 50.0 °F - 44.6 °F 82% 29.89 in 10.0 mi Calm Calm - N/A   Clear
8:55 AM 51.8 °F - 44.6 °F 76% 29.89 in 10.0 mi South 4.6 mph - N/A   Partly Cloudy
9:15 AM 51.8 °F - 46.4 °F 82% 29.89 in 10.0 mi South 6.9 mph - N/A   Partly Cloudy
9:55 AM 53.6 °F - 46.4 °F 77% 29.88 in 10.0 mi South 5.8 mph - N/A   Partly Cloudy
10:15 AM 53.6 °F - 48.2 °F 82% 29.88 in 10.0 mi South 5.8 mph - N/A   Mostly Cloudy
10:35 AM 55.4 °F - 48.2 °F 77% 29.88 in 10.0 mi South 6.9 mph - N/A   Scattered Clouds
10:55 AM 55.4 °F - 48.2 °F 77% 29.86 in 10.0 mi South 8.1 mph - N/A   Clear
11:15 AM 57.2 °F - 48.2 °F 72% 29.86 in 10.0 mi SSW 10.4 mph - N/A   Mostly Cloudy
11:35 AM 57.2 °F - 48.2 °F 72% 29.86 in 10.0 mi SSW 9.2 mph - N/A   Overcast
11:55 AM 57.2 °F - 50.0 °F 77% 29.85 in 10.0 mi SSW 9.2 mph - N/A   Overcast
12:15 PM 57.2 °F - 50.0 °F 77% 29.85 in 10.0 mi SSW 12.7 mph 17.3 mph N/A   Overcast
12:35 PM 57.2 °F - 50.0 °F 77% 29.84 in 10.0 mi SW 9.2 mph - N/A   Overcast
12:55 PM 57.2 °F - 50.0 °F 77% 29.83 in 10.0 mi SSW 9.2 mph 19.6 mph N/A   Overcast
1:15 PM 57.2 °F - 50.0 °F 77% 29.82 in 10.0 mi SSW 11.5 mph 17.3 mph N/A   Overcast
1:35 PM 57.2 °F - 50.0 °F 77% 29.82 in 10.0 mi SW 10.4 mph - N/A   Overcast
1:55 PM 57.2 °F - 50.0 °F 77% 29.81 in 10.0 mi SW 12.7 mph 16.1 mph N/A   Overcast
2:15 PM 57.2 °F - 50.0 °F 77% 29.80 in 10.0 mi SW 12.7 mph - N/A   Overcast
2:35 PM 57.2 °F - 51.8 °F 82% 29.80 in 8.0 mi SW 12.7 mph 18.4 mph N/A   Overcast
2:55 PM 57.2 °F - 51.8 °F 82% 29.80 in 10.0 mi SSW 9.2 mph 17.3 mph N/A   Overcast
3:15 PM 57.2 °F - 51.8 °F 82% 29.78 in 10.0 mi South 11.5 mph 16.1 mph N/A   Overcast
3:35 PM 57.2 °F - 51.8 °F 82% 29.78 in 10.0 mi SSW 13.8 mph - N/A   Overcast
3:55 PM 57.2 °F - 51.8 °F 82% 29.79 in 10.0 mi SSW 9.2 mph - N/A   Mostly Cloudy
4:15 PM 57.2 °F - 51.8 °F 82% 29.79 in 10.0 mi SSW 9.2 mph - N/A   Overcast
4:35 PM 57.2 °F - 51.8 °F 82% 29.79 in 10.0 mi SW 8.1 mph - N/A   Overcast
4:55 PM 57.2 °F - 51.8 °F 82% 29.78 in 10.0 mi SSW 5.8 mph - N/A   Overcast
5:15 PM 57.2 °F - 51.8 °F 82% 29.78 in 10.0 mi SSW 5.8 mph - N/A   Mostly Cloudy
5:35 PM 55.4 °F - 50.0 °F 82% 29.78 in 10.0 mi Calm Calm - N/A   Partly Cloudy
5:55 PM 55.4 °F - 50.0 °F 82% 29.78 in 10.0 mi South 4.6 mph - N/A   Clear
6:15 PM 55.4 °F - 50.0 °F 82% 29.77 in 10.0 mi South 5.8 mph - N/A   Clear
6:35 PM 55.4 °F - 50.0 °F 82% 29.77 in 10.0 mi South 4.6 mph - N/A   Partly Cloudy
6:55 PM 55.4 °F - 50.0 °F 82% 29.78 in 10.0 mi South 4.6 mph - N/A   Clear
7:15 PM 55.4 °F - 50.0 °F 82% 29.77 in 10.0 mi South 5.8 mph - N/A   Mostly Cloudy
7:35 PM 55.4 °F - 50.0 °F 82% 29.78 in 10.0 mi SSW 5.8 mph - N/A   Mostly Cloudy
7:55 PM 55.4 °F - 50.0 °F 82% 29.77 in 10.0 mi South 6.9 mph - N/A   Partly Cloudy
8:15 PM 55.4 °F - 50.0 °F 82% 29.78 in 10.0 mi SSW 6.9 mph - N/A   Clear
8:35 PM 55.4 °F - 48.2 °F 77% 29.78 in 10.0 mi SSW 5.8 mph - N/A   Clear
8:55 PM 55.4 °F - 48.2 °F 77% 29.78 in 10.0 mi Calm Calm - N/A   Partly Cloudy
9:15 PM 55.4 °F - 48.2 °F 77% 29.78 in 10.0 mi South 4.6 mph - N/A   Partly Cloudy
9:35 PM 55.4 °F - 48.2 °F 77% 29.78 in 10.0 mi Calm Calm - N/A   Scattered Clouds
9:55 PM 55.4 °F - 48.2 °F 77% 29.79 in 10.0 mi SSW 5.8 mph - N/A   Scattered Clouds
10:15 PM 55.4 °F - 48.2 °F 77% 29.80 in 10.0 mi SSW 3.5 mph - N/A   Scattered Clouds
10:35 PM 55.4 °F - 46.4 °F 72% 29.80 in 10.0 mi SSW 5.8 mph - N/A   Partly Cloudy
10:55 PM 55.4 °F - 46.4 °F 72% 29.80 in 10.0 mi SSW 4.6 mph - N/A   Partly Cloudy
11:15 PM 55.4 °F - 46.4 °F 72% 29.78 in 10.0 mi Calm Calm - N/A   Clear
11:35 PM 55.4 °F - 46.4 °F 72% 29.78 in 10.0 mi Calm Calm - N/A   Partly Cloudy
11:55 PM 57.2 °F - 46.4 °F 67% 29.78 in 10.0 mi Calm Calm - N/A   Mostly Cloudy